• In Hungary
  • List of Countries
  • For 7 days
  • Water Temperature
  • Satellite Maps
  • Weather Map
  • News
  • Weather Widgets
  • user-avatar
    Login

    Hourly Weather Borzhomi

    Today, 20 September, Thursday

    Time Temperature Precipitation Wind Pressure Humidity
    00:00 +11°C° 0 mm 1 mps 670 mmHg 88%
    01:00 +11°C° 0 mm 1 mps 670 mmHg 87%
    02:00 +11°C° 0 mm 1 mps 670 mmHg 86%
    03:00 +11°C° 0 mm 1 mps 669 mmHg 84%
    04:00 +11°C° 0 mm 1 mps 669 mmHg 83%
    05:00 +11°C° 0 mm 1 mps 669 mmHg 81%
    06:00 +11°C° 0 mm 1 mps 669 mmHg 80%
    07:00 +13°C° 0 mm 2 mps 670 mmHg 71%
    08:00 +16°C° 0 mm 2 mps 670 mmHg 61%
    09:00 +19°C° 0 mm 2 mps 671 mmHg 52%
    10:00 +20°C° 0 mm 2 mps 671 mmHg 48%
    11:00 +23°C° 0 mm 2 mps 671 mmHg 44%
    12:00 +24°C° 0 mm 2 mps 671 mmHg 40%
    13:00 +25°C° 0 mm 3 mps 671 mmHg 41%
    14:00 +25°C° 0 mm 3 mps 671 mmHg 41%
    15:00 +25°C° 0 mm 3 mps 671 mmHg 41%
    16:00 +22°C° 0 mm 3 mps 670 mmHg 50%
    17:00 +20°C° 0 mm 2 mps 670 mmHg 59%
    18:00 +17°C° 0 mm 2 mps 669 mmHg 68%
    19:00 +16°C° 0 mm 2 mps 669 mmHg 72%
    20:00 +15°C° 0 mm 2 mps 669 mmHg 75%
    21:00 +14°C° 0 mm 2 mps 669 mmHg 79%
    22:00 +14°C° 0 mm 2 mps 669 mmHg 79%
    23:00 +13°C° 0 mm 2 mps 669 mmHg 79%

    Tomorrow, 21 September, Friday

    Time Temperature Precipitation Wind Pressure Humidity
    00:00 +13°C° 0 mm 2 mps 669 mmHg 79%
    01:00 +13°C° 0 mm 2 mps 669 mmHg 79%
    02:00 +12°C° 0 mm 2 mps 669 mmHg 79%
    03:00 +12°C° 0 mm 2 mps 668 mmHg 79%
    04:00 +12°C° 0 mm 2 mps 668 mmHg 79%
    05:00 +12°C° 0 mm 2 mps 668 mmHg 79%
    06:00 +12°C° 0 mm 2 mps 668 mmHg 79%
    07:00 +14°C° 0 mm 2 mps 669 mmHg 70%
    08:00 +17°C° 0 mm 2 mps 669 mmHg 62%
    09:00 +19°C° 0 mm 2 mps 670 mmHg 53%
    10:00 +21°C° 0 mm 2 mps 670 mmHg 49%
    11:00 +24°C° 0 mm 2 mps 670 mmHg 44%
    12:00 +25°C° 0 mm 2 mps 670 mmHg 40%
    13:00 +25°C° 0.1 mm 2 mps 670 mmHg 40%
    14:00 +25°C° 0.1 mm 2 mps 670 mmHg 40%
    15:00 +25°C° 0.1 mm 2 mps 669 mmHg 40%
    16:00 +23°C° 0.3 mm 2 mps 669 mmHg 49%
    17:00 +20°C° 0.3 mm 2 mps 669 mmHg 57%
    18:00 +19°C° 0.3 mm 1 mps 668 mmHg 66%
    19:00 +18°C° 0.2 mm 1 mps 669 mmHg 69%
    20:00 +16°C° 0.2 mm 1 mps 669 mmHg 72%
    21:00 +15°C° 0.2 mm 1 mps 669 mmHg 76%
    22:00 +15°C° 0 mm 1 mps 669 mmHg 75%
    23:00 +15°C° 0 mm 1 mps 669 mmHg 75%

    Day after tomorrow, 22 September, Saturday

    Time Temperature Precipitation Wind Pressure Humidity
    00:00 +15°C° 0 mm 1 mps 669 mmHg 75%
    01:00 +14°C° 0 mm 2 mps 669 mmHg 74%
    02:00 +14°C° 0 mm 2 mps 669 mmHg 73%
    03:00 +14°C° 0 mm 2 mps 669 mmHg 72%
    04:00 +14°C° 0.1 mm 2 mps 669 mmHg 73%
    05:00 +14°C° 0.1 mm 2 mps 669 mmHg 73%
    06:00 +14°C° 0.1 mm 2 mps 669 mmHg 73%
    07:00 +15°C° 0 mm 2 mps 669 mmHg 67%
    08:00 +17°C° 0 mm 2 mps 670 mmHg 62%
    09:00 +19°C° 0 mm 2 mps 670 mmHg 57%
    10:00 +20°C° 0.1 mm 2 mps 670 mmHg 54%
    11:00 +21°C° 0.1 mm 2 mps 670 mmHg 50%
    12:00 +24°C° 0.1 mm 2 mps 670 mmHg 47%
    13:00 +24°C° 0.1 mm 2 mps 670 mmHg 47%
    14:00 +24°C° 0.1 mm 2 mps 670 mmHg 48%
    15:00 +24°C° 0.1 mm 2 mps 670 mmHg 48%
    16:00 +21°C° 0.1 mm 2 mps 669 mmHg 55%
    17:00 +20°C° 0.1 mm 1 mps 669 mmHg 63%
    18:00 +18°C° 0.1 mm 1 mps 669 mmHg 70%
    19:00 +16°C° 0 mm 1 mps 669 mmHg 74%
    20:00 +16°C° 0 mm 1 mps 669 mmHg 77%
    21:00 +15°C° 0 mm 1 mps 669 mmHg 80%
    22:00 +14°C° 0 mm 1 mps 669 mmHg 80%
    23:00 +14°C° 0 mm 1 mps 669 mmHg 80%

    23 September, Sunday

    Time Temperature Precipitation Wind Pressure Humidity
    00:00 +14°C° 0 mm 1 mps 669 mmHg 80%
    01:00 +14°C° 0 mm 1 mps 669 mmHg 80%
    02:00 +13°C° 0 mm 1 mps 668 mmHg 80%
    03:00 +13°C° 0 mm 2 mps 668 mmHg 79%
    04:00 +13°C° 0 mm 2 mps 668 mmHg 80%
    05:00 +13°C° 0 mm 2 mps 668 mmHg 80%
    06:00 +12°C° 0 mm 2 mps 668 mmHg 80%
    07:00 +15°C° 0 mm 2 mps 669 mmHg 72%
    08:00 +17°C° 0 mm 2 mps 669 mmHg 64%
    09:00 +20°C° 0 mm 2 mps 670 mmHg 55%
    10:00 +21°C° 0 mm 2 mps 670 mmHg 51%
    11:00 +23°C° 0 mm 2 mps 670 mmHg 47%
    12:00 +25°C° 0 mm 2 mps 670 mmHg 43%
    13:00 +24°C° 0.1 mm 2 mps 670 mmHg 46%
    14:00 +24°C° 0.1 mm 2 mps 669 mmHg 48%
    15:00 +22°C° 0.1 mm 3 mps 669 mmHg 50%
    16:00 +20°C° 0.5 mm 2 mps 669 mmHg 60%
    17:00 +19°C° 0.5 mm 2 mps 668 mmHg 70%
    18:00 +17°C° 0.5 mm 2 mps 668 mmHg 80%
    19:00 +16°C° 0.2 mm 2 mps 668 mmHg 85%
    20:00 +15°C° 0.2 mm 1 mps 669 mmHg 90%
    21:00 +14°C° 0.2 mm 1 mps 669 mmHg 95%
    22:00 +14°C° 0 mm 1 mps 669 mmHg 95%
    23:00 +14°C° 0 mm 1 mps 669 mmHg 95%

    24 September, Monday

    Time Temperature Precipitation Wind Pressure Humidity
    00:00 +13°C° 0 mm 1 mps 669 mmHg 95%
    01:00 +13°C° 0 mm 1 mps 669 mmHg 94%
    02:00 +13°C° 0 mm 1 mps 669 mmHg 94%
    03:00 +13°C° 0 mm 1 mps 669 mmHg 93%
    04:00 +13°C° 0 mm 1 mps 669 mmHg 93%
    05:00 +13°C° 0 mm 1 mps 669 mmHg 94%
    06:00 +13°C° 0 mm 1 mps 669 mmHg 94%
    07:00 +14°C° 0 mm 1 mps 669 mmHg 87%
    08:00 +15°C° 0 mm 1 mps 669 mmHg 81%
    09:00 +17°C° 0 mm 2 mps 670 mmHg 74%
    10:00 +18°C° 0 mm 2 mps 669 mmHg 68%
    11:00 +19°C° 0 mm 2 mps 669 mmHg 62%
    12:00 +21°C° 0 mm 2 mps 669 mmHg 56%
    13:00 +21°C° 0 mm 2 mps 669 mmHg 55%
    14:00 +21°C° 0 mm 2 mps 669 mmHg 55%
    15:00 +21°C° 0 mm 2 mps 669 mmHg 54%
    16:00 +20°C° 0 mm 2 mps 668 mmHg 63%
    17:00 +19°C° 0 mm 1 mps 668 mmHg 72%
    18:00 +16°C° 0 mm 1 mps 667 mmHg 81%
    19:00 +15°C° 0 mm 1 mps 667 mmHg 83%
    20:00 +15°C° 0 mm 1 mps 667 mmHg 85%
    21:00 +14°C° 0 mm 1 mps 667 mmHg 86%
    22:00 +14°C° 0 mm 1 mps 667 mmHg 85%
    23:00 +14°C° 0 mm 2 mps 667 mmHg 83%

    25 September, Tuesday

    Time Temperature Precipitation Wind Pressure Humidity
    00:00 +14°C° 0 mm 2 mps 667 mmHg 81%
    01:00 +14°C° 0 mm 2 mps 667 mmHg 80%
    02:00 +13°C° 0 mm 2 mps 667 mmHg 78%
    03:00 +13°C° 0 mm 2 mps 667 mmHg 76%
    04:00 +13°C° 0 mm 2 mps 666 mmHg 76%
    05:00 +13°C° 0 mm 2 mps 666 mmHg 75%
    06:00 +13°C° 0 mm 2 mps 666 mmHg 74%
    07:00 +15°C° 0 mm 2 mps 666 mmHg 64%
    08:00 +18°C° 0 mm 2 mps 667 mmHg 55%
    09:00 +21°C° 0 mm 2 mps 667 mmHg 46%
    10:00 +24°C° 0 mm 2 mps 667 mmHg 41%
    11:00 +25°C° 0 mm 2 mps 668 mmHg 36%
    12:00 +27°C° 0 mm 2 mps 668 mmHg 32%
    13:00 +27°C° 0 mm 2 mps 667 mmHg 32%
    14:00 +27°C° 0 mm 2 mps 667 mmHg 32%
    15:00 +28°C° 0 mm 2 mps 667 mmHg 31%
    16:00 +25°C° 0 mm 2 mps 666 mmHg 40%
    17:00 +22°C° 0 mm 1 mps 666 mmHg 49%
    18:00 +20°C° 0 mm 1 mps 665 mmHg 58%
    19:00 +19°C° 0 mm 1 mps 666 mmHg 60%
    20:00 +18°C° 0 mm 1 mps 666 mmHg 63%
    21:00 +16°C° 0 mm 1 mps 666 mmHg 65%
    22:00 +15°C° 0 mm 1 mps 666 mmHg 66%
    23:00 +15°C° 0 mm 1 mps 666 mmHg 67%
    Show more